Location: Baptist Memorial Hospital
(34.4976°N, 89.0284°W)
Time: 10:39:37
(UTC+00:00)

ERS-2 - Pass Details

Date: 29 October 2020
Orbit: 493 x 498 km, 98.6° (Epoch: 25 November)

Event Time Altitude Azimuth Distance (km) Brightness Sun altitude
Rises 23:33:07 0° 9° (N) 2,580 5.5 -6.5°
Reaches altitude 10° 23:35:13 10° 6° (N) 1,694 4.6 -6.9°
Maximum altitude 23:38:49 64° 285° (WNW) 551 2.6 -7.6°
Drops below altitude 10° 23:42:24 10° 203° (SSW) 1,684 5.3 -8.3°
Sets 23:44:28 0° 201° (SSW) 2,562 6.2 -8.7°
